Forside
METAR-TAF:

METAR-TAF

Lufthavne :

Ford Airport

Iron Mountain / Kingsford, Michigan, USA

Breddekreds: 45-48-51N, længdekreds: 088-06-32W, højde: 360 m

Aktuelle vejr

Denne rapport blev lavet for 28 minutter siden, kl. 00:54 UTC
Vind 7 kt fra nordvest
Temperatur 14°C
Fugtighed 44%
Tryk 1010 hPa
Sigt: 16.1 km
Nogle få skyer i en højde af 6500 ft

METAR: KIMT 220054Z AUTO 32007KT 10SM FEW065 14/02 A2983 RMK AO2 SLP106 T01390022

Tid: 21:22 (01:22 UTC)


TAF: fraværende

Vejrobservationer og prognoser fra mere end 4000 lufthavne (METAR og TAF).

De gule og røde prikker repræsenterer de meteorologiske stationer.

Flyt musen over at se navnet på stationen.

Så klik over at se vejr observationer og prognoser.

At skifte det kort: Klik på de grønne knapper med et sort kors for at zoome ind; på den grønne knap med en bindestreg for at zoome ud; eller på de grønne pile for tilstødende kort.


METAR-TAF: